Regional Weather Roundup
Issued by NWS Kansas City/Pleasant Hill, MO

Home | Current Version | Previous Version | Graphics & Text | Print | Product List | Glossary Off
Versions: 1 2 3 4 5 6 7 8 9 10 11 12 13 14 15 16 17 18 19 20 21 22 23 24 25 26 27

000
ASUS43 KEAX 290510
RWREAX

WEATHER ROUNDUP FOR EASTERN KANSAS AND NORTHWEST MISSOURI
NATIONAL WEATHER SERVICE KANSAS CITY/PLEASANT HILL MO
1200 AM CDT SUN MAY 29 2016

KSZ040-057-103>105-MOZ028-029-037-043-290600-
...KANSAS CITY METROPOLITAN AREA...

CITY           SKY/WX    TMP DP  RH WIND       PRES   REMARKS
K.C. INTL      CLEAR     63  58  83 SW6       30.01R
K.C. DOWNTOWN  CLEAR     69  60  73 CALM      30.00R
LEES SUMMIT    CLEAR     66  59  78 SW6       30.03R
OLATHE - IXD   CLEAR     65  59  81 SW3       30.03R
OLATHE - OJC   CLEAR     62  59  90 CALM      30.02S
LAWRENCE       CLEAR     60  58  92 CALM      30.01R

$$

MOZ001>008-011>017-020>025-030>033-038>040-044>046-053-054-290600-
...NORTHERN AND CENTRAL MISSOURI...

CITY           SKY/WX    TMP DP  RH WIND       PRES   REMARKS
ST. JOSEPH     CLEAR     66  61  84 S5        29.99R
MOSBY          CLEAR     63  61  94 CALM      30.00S
WARRENSBURG    CLEAR     63  61  94 CALM      30.03R
WHITEMAN AFB   CLEAR     64  64 100 SW5       30.02R
CLINTON        CLEAR     64  63  94 CALM      30.04R
SEDALIA        CLEAR     67  62  84 S5        30.04R
WARSAW         NOT AVBL
CHILLICOTHE      N/A     64  61  90 S3        30.00R
KIRKSVILLE     CLEAR     65  58  78 SW7       30.00R

$$

MOZ041-047>049-056>058-063>065-088>090-097-290600-
...EASTERN AND SOUTHERN MISSOURI...

CITY           SKY/WX    TMP DP  RH WIND       PRES   REMARKS
ST. LOUIS INTL PTCLDY    74  61  63 W9        30.00R
SPIRIT OF STL  CLEAR     67  59  75 W8        29.99R
COLUMBIA       CLEAR     70  62  76 SW8       30.02R
JEFFERSON CITY CLEAR     70  63  78 CALM      30.02R
ROLLA          CLOUDY    64  61  90 S6        30.03R
SPRINGFIELD    CLEAR     64  60  87 SW3       30.05R
JOPLIN         CLEAR     67  63  87 S3        30.04R
WEST PLAINS    CLEAR     69  64  84 S3        30.06S

$$

IAZ060-094-KSZ022-034>040-054-083-096-NEZ052-066-093-290600-
...KANSAS...SOUTHEAST NEBRASKA AND IOWA...

CITY           SKY/WX    TMP DP  RH WIND       PRES   REMARKS
TOPEKA         CLEAR     64  60  87 CALM      30.01R
MANHATTAN      CLEAR     62  58  86 CALM      30.01S
EMPORIA        CLEAR     64  59  83 SW5       30.03R
CHANUTE        CLEAR     65  61  87 S6        30.03R
WICHITA        CLEAR     70  58  65 CALM      30.03R
OMAHA          CLEAR     63  55  75 NW8       29.97R
LINCOLN        CLEAR     60  57  89 N5        30.00R
FALLS CITY     CLEAR     66  59  78 SW7       29.97S
LAMONI         CLEAR     63  59  87 SW9       29.97R
DES MOINES     CLEAR     63  55  75 SW8       29.92R

$$





USA.gov is the U.S. government's official web portal to all federal, state and local government web resources and services.